Flag for Switzerland Weather past 2 weeks in Liestal, Basel-Land, Switzerland

Now
37 °F

Clear.


Feels Like: 37 °F
Forecast: 34 / 51 °F
Wind: 1 mph from North

Location: Bale-Mulhouse


UV Index: 0 (Low)

Visibility: N/A


Pressure: 29.92 "Hg

Humidity: 93%

Dew point: 36 °F

Location of LiestalLocation

Historic Weather in Liestal

°F

Liestal temperature yesterday

Maximum temperature yesterday: 54 °F (at 11:30 AM)
Minimum temperature yesterday: 37 °F (at 11:30 PM)
Average temperature yesterday: 45 °F

Past Weeks' High & Low Weather Summary

 TemperatureHumidityPressure
High73 °F (Apr 7, 5:30 PM)100% (Apr 6, 1:00 AM)30.33 "Hg (Apr 6, 1:00 AM)
Low27 °F (Apr 16, 6:00 AM)24% (Apr 17, 6:00 PM)29.65 "Hg (Apr 4, 12:00 AM)
Average53 °F62%30.07 "Hg
* Reported Midnight between Apr 3 and Apr 4 — Midnight between Apr 18 and Apr 19, Liestal, Weather by CustomWeather, © 2014

Note: Actual official high and low records may vary slightly from our data, if they occured in-between our weather recording intervals... More about our weather records

Advertising

Historic Weather Conditions — Data for Previous 24 hours

 ConditionsComfort  
Time TempWeatherWind HumidityBarometerVisibility
12:00 AM
Apr 19
36 °FPassing clouds.3 mph93%29.92 "HgN/A
11:30 PM
Apr 18
37 °FPassing clouds.No wind87%29.95 "HgN/A
11:00 PM39 °FPartly cloudy.3 mph93%29.95 "HgN/A
10:30 PM41 °FPartly cloudy.2 mph87%29.95 "HgN/A
10:00 PM41 °FPartly cloudy.9 mph87%29.95 "HgN/A
9:30 PM41 °FPartly cloudy.7 mph87%29.95 "HgN/A
9:00 PM41 °FSprinkles. Broken clouds.9 mph81%29.95 "HgN/A
8:30 PM41 °FSprinkles. Partly sunny.15 mph87%29.98 "Hg5 mi
8:00 PM45 °FBroken clouds.2 mph81%29.92 "HgN/A
7:30 PM45 °FBroken clouds.5 mph87%29.92 "HgN/A
7:00 PM46 °FBroken clouds.6 mph82%29.92 "HgN/A
6:30 PM46 °FLight rain. Mostly cloudy.2 mph82%29.92 "HgN/A
6:00 PM45 °FLight rain. Mostly cloudy.2 mph81%29.89 "HgN/A
5:30 PM45 °FLight rain. Mostly cloudy.5 mph87%29.89 "HgN/A
5:00 PM45 °FLight rain. More clouds than sun.7 mph87%29.89 "HgN/A
4:30 PM45 °FLight rain. Mostly cloudy.5 mph87%29.89 "HgN/A
4:00 PM45 °FLight rain. Mostly cloudy.5 mph87%29.92 "HgN/A
3:00 PM46 °FLight rain. Overcast.16 mph71%29.89 "HgN/A
2:30 PM48 °FBroken clouds.15 mph71%29.89 "HgN/A
2:00 PM50 °FOvercast.17 mph67%29.86 "HgN/A
1:30 PM54 °FPartly sunny.13 mph58%29.86 "HgN/A
1:00 PM54 °FMostly cloudy.14 mph58%29.86 "HgN/A
12:30 PM52 °FPartly sunny.10 mph67%29.86 "HgN/A
12:00 PM54 °FBroken clouds.8 mph58%29.89 "HgN/A
11:30 AM54 °FBroken clouds.9 mph58%29.89 "HgN/A
11:00 AM52 °FMostly cloudy.5 mph67%29.89 "HgN/A
10:30 AM48 °FOvercast.6 mph82%29.89 "HgN/A
10:00 AM48 °FLight rain. More clouds than sun.3 mph76%29.92 "HgN/A
9:30 AM46 °FMore clouds than sun.5 mph76%29.92 "HgN/A
9:00 AM46 °FLight rain. Cloudy.8 mph76%29.92 "Hg5 mi
8:30 AM46 °FLight rain. Mostly cloudy.3 mph66%29.92 "HgN/A
8:00 AM46 °FSunny.3 mph66%29.92 "Hg10 mi
7:30 AM45 °FClear.2 mph66%29.89 "Hg10 mi
7:00 AM45 °FClear.3 mph66%29.89 "Hg10 mi
6:30 AM45 °FClear.3 mph66%29.89 "Hg10 mi
6:00 AM45 °FPassing clouds.3 mph61%29.89 "HgN/A
5:30 AM45 °FClear.5 mph61%29.92 "Hg10 mi
5:00 AM45 °FPassing clouds.5 mph61%29.92 "HgN/A
4:30 AM45 °FClear.8 mph61%29.92 "Hg10 mi
4:00 AM45 °FClear.6 mph61%29.95 "HgN/A
3:30 AM43 °FClear.5 mph61%29.95 "HgN/A
3:00 AM43 °FClear.5 mph61%29.95 "HgN/A
2:30 AM43 °FClear.3 mph61%29.95 "HgN/A
2:00 AM43 °FClear.3 mph61%29.95 "HgN/A
1:30 AM41 °FPassing clouds.5 mph66%29.98 "HgN/A
1:00 AM41 °FClear.2 mph61%29.98 "Hg10 mi
12:30 AM41 °FClear.1 mph66%29.98 "Hg10 mi
12:00 AM43 °FClear.1 mph61%29.98 "Hg10 mi
Weather by CustomWeather, © 2014

See weather overview